Regional Weather Roundup
Issued by NWS

Home | Current Version | Previous Version | Graphics & Text | Print | Product List | Glossary On
Versions: 1 2 3 4 5 6 7 8 9 10 11 12 13 14 15 16 17 18 19 20 21 22 23 24 25 26 27 28 29 30 31 32 33 34 35 36 37 38 39 40 41 42 43 44 45 46 47 48 49 50
101
ASUS43 KMPX 240210
RWRMN
WEATHER ROUNDUP FOR MINNESOTA
NATIONAL WEATHER SERVICE TWIN CITIES/CHANHASSEN MN
800 PM CST THU FEB 23 2017


NOTE: "FAIR" INDICATES FEW OR NO CLOUDS BELOW 12,000 FEET WITH NO
SIGNIFICANT WEATHER AND/OR OBSTRUCTIONS TO VISIBILITY. N/A MEANS
CURRENT SKY AND/OR WEATHER CONDITIONS ARE NOT AVAILABLE.

MNZ060>063-068>070-240300-
   Twin Cities Metro

CITY           SKY/WX    TMP DP  RH WIND       PRES   REMARKS
TWIN CITIES    CLOUDY    30  22  72 N16G23    29.89F WCI  19
ST PAUL        PTCLDY    30  23  75 N12       29.91F WCI  20
CRYSTAL        CLOUDY    30  21  69 N14       29.90F WCI  19
BLAINE         MOCLDY    30  25  80 N10       29.92F WCI  21
LAKEVILLE      CLOUDY    28  25  86 NE12G17   29.87F WCI  18
EDEN PRAIRIE   CLOUDY    30  22  72 NE17G23   29.86F WCI  18
SOUTH ST PAUL  CLOUDY    31  23  71 N8        29.89F WCI  24
LAKE ELMO      FAIR      32  27  80 N10       29.90F WCI  24
$$
MNZ001>005-007-008-013>017-022>024-027-028-240300-
   Northwest Minnesota

CITY           SKY/WX    TMP DP  RH WIND       PRES   REMARKS
BEMIDJI        CLOUDY    21  15  75 N12       30.04R WCI   9
HALLOCK        CLEAR     19  14  79 N7        30.14S WCI  10
ROSEAU         CLEAR     18   9  68 NW12      30.11S WCI   5
WARROAD        CLEAR     16   7  67 NW8       30.11S WCI   5
THIEF RVR FALL CLEAR     18  11  74 N14       30.11S WCI   4
CROOKSTON      PTCLDY    21  16  79 N14G23    30.13S WCI   8
FOSSTON        CLOUDY    18  12  79 N13       30.08F WCI   4
DETROIT LAKES  CLOUDY    25  19  80 N12G21    30.03F WCI  14
MOORHEAD       CLOUDY    25  18  74 N17G24    30.08F WCI  11
PARK RAPIDS    CLOUDY    23  14  68 N9        30.00F WCI  13
MAHNOMEN       MOCLDY    20  14  76 N15G22    30.07R WCI   7
$$
MNZ006-009>011-018-025>026-240300-
   North Central Minnesota

CITY           SKY/WX    TMP DP  RH WIND       PRES   REMARKS
BAUDETTE       CLEAR     17   6  62 NW13      30.06S WCI   4
FLAG ISLAND    CLEAR     16   7  67 NW15      30.09S WCI   1
INTL FALLS     CLEAR     19   7  59 NW9       30.04R WCI   8
WASKISH        CLEAR     19  10  68 NW7       30.07S WCI  10
BIG FORK       CLOUDY    21  10  63 NW6       30.03R WCI  14
LONGVILLE      CLOUDY    21  18  86 CALM      30.01F
GRAND RAPIDS   CLOUDY    22  14  71 N14       30.02R WCI   9
CRANE LAKE     CLEAR     21  10  63 N3        30.04R
ORR            CLOUDY    19   9  63 CALM      29.99S
COOK           CLOUDY    21  10  63 NW5       30.01S WCI  15
WALKER         FAIR      22  15  74 N5        30.01F WCI  15
$$
MNZ012-019>021-037-240300-
   Northeast Minnesota

CITY           SKY/WX    TMP DP  RH WIND       PRES   REMARKS
DULUTH         CLOUDY    25  20  81 N13       29.96R WCI  14
ELY            CLOUDY    21  10  63 NW6       29.99R WCI  14
HIBBING        PTCLDY    21  13  71 N10       29.99R WCI  10
EVELETH        CLOUDY    23   8  53 N8        29.99S WCI  14
DULUTH HARBOR  CLOUDY    30  23  74 CALM      30.02S
TWO HARBORS    CLOUDY    28  19  69 CALM      29.96R
SILVER BAY     CLOUDY    27  18  69 N7        29.96R WCI  19
GRAND MARAIS     N/A     29  13  51 NW3       29.99R
G MARAIS ARPRT CLOUDY    21   9  58 NW5       29.92S WCI  15
$$
MNZ029>031-032-039>041-046>048-054>057-064-240300-
   West Central Minnesota

CITY           SKY/WX    TMP DP  RH WIND       PRES   REMARKS
FERGUS FALLS   CLOUDY    25  19  80 N17       30.03F WCI  11
WHEATON        MOCLDY    27  21  80 N15G28    30.01F WCI  15
MORRIS         CLOUDY    28  25  86 N16       29.95S WCI  17
ALEXANDRIA     CLOUDY    27  21  78 N15       29.94F WCI  15
ELBOW LAKE     FAIR      26  20  80 NE18G24   29.96F WCI  12
WADENA         CLOUDY    23  18  80 N14       29.98F WCI  11
GLENWOOD       PTCLDY    27  21  80 N20G28    29.93F WCI  13
APPLETON       PTCLDY    30  23  74 N20G28    29.92F WCI  18
BENSON         CLOUDY    30  21  69 NE15G23   29.94F WCI  19
ORTONVILLE     CLOUDY    27  21  80 N23       29.94F WCI  12
MADISON        CLOUDY    32  27  80 N18G25    29.93F WCI  20
WILLMAR        FAIR      30  25  80 N15G24    29.91F WCI  19
$$
MNZ033>034-036-042>043-049>051-058-059-240300-
   Central Minnesota

CITY           SKY/WX    TMP DP  RH WIND       PRES   REMARKS
ST CLOUD       CLOUDY    28  22  78 NE10      29.94F WCI  19
SAUK CENTRE    FAIR      27  20  75 N15G23    29.94F WCI  16
PAYNESVILLE    CLOUDY    28  23  81 N17G26    29.92F WCI  16
AITKIN         CLOUDY    27  19  74 N7        29.98F WCI  19
PINE RIVER     CLOUDY    25  18  74 N10       30.03F WCI  15
BRAINERD       CLOUDY    25  18  74 N9        29.99F WCI  15
STAPLES        CLOUDY    25  18  74 N8        29.98F WCI  16
LONG PRAIRIE   FAIR      27  21  80 NW14G22   29.95F WCI  15
LITTLE FALLS   CLOUDY    28  19  69 N7        29.97F WCI  21
LITCHFIELD     CLOUDY    30  25  80 NE14G21   29.89F WCI  20
BUFFALO        CLOUDY    29  24  81 N9        29.92F WCI  20
MAPLE LAKE     CLOUDY    29  25  84 N12       29.93F WCI  19
HUTCHINSON     PTCLDY    30  26  83 N14G22    29.87F WCI  20
$$
MNZ037-044-045-052-053-240300-
   East Central Minnesota

CITY           SKY/WX    TMP DP  RH WIND       PRES   REMARKS
PRINCETON      CLOUDY    28  23  80 N13       29.95F WCI  18
MORA           PTCLDY    27  21  80 N7        29.97F WCI  19
CAMBRIDGE      CLOUDY    30  21  69 N6        29.93F WCI  24
RUSH CITY      CLOUDY    28  23  80 N14       29.95F WCI  17
MOOSE LAKE     CLOUDY    27  23  86 N5        29.98S WCI  21
HINCKLEY       MOCLDY    28  23  80 N14       29.96F WCI  17
CLOQUET        CLOUDY    25  21  86 NW5       29.98S WCI  19
MCGREGOR       PTCLDY    27  23  86 N6        30.00S WCI  20
$$
MNZ071>073-080-081-089-090-097-098-240300-
   Southwest Minnesota

CITY           SKY/WX    TMP DP  RH WIND       PRES   REMARKS
MONTEVIDEO     CLOUDY    28  25  86 NE16G25   29.93F WCI  17
GRANITE FALLS  CLOUDY    32  27  81 N21       29.91S WCI  20
CANBY          CLOUDY    31  26  81 NE14G23   29.92S WCI  20
MARSHALL       CLOUDY    30  25  81 N18G28    29.88S WCI  18
REDWOOD FALLS  CLOUDY    31  23  72 NE13G24   29.86F WCI  21
OLIVIA         CLOUDY    32  27  80 NE16G23   29.87F WCI  21
PIPESTONE      CLOUDY    28  21  74 NE22G30   29.82R WCI  15
WINDOM         CLOUDY    28  25  86 N14       29.86R WCI  17
WORTHINGTON    HVY SNOW  27  27 100 NE23      29.83R VSB 1/4 WCI  12
JACKSON        SNOW      28  28 100 N20       29.83R VSB 1/2 WCI  15
TRACY          CLOUDY    31  27  86 N17G25    29.87R WCI  19
SLAYTON        CLOUDY    28  25  89 N16G24    29.84R WCI  15
$$
MNZ065>067-074>077-082>085-091>093-240300-
   South Central Minnesota

CITY           SKY/WX    TMP DP  RH WIND       PRES   REMARKS
MANKATO          N/A     31  25  78 NE15      29.83F WCI  20
NEW ULM        CLOUDY    28  23  80 NE15G22   29.85R WCI  17
ST JAMES       CLOUDY    30  27  86 N16       29.86R WCI  19
FAIRMONT       LGT SNOW  30  29  96 N16       29.83R FOG     WCI  19
GLENCOE        PTCLDY    31  27  85 N13G22    29.85F WCI  21
FARIBAULT      FLURRIES  32  27  80 NE13G22   29.84F WCI  22
OWATONNA       LGT SNOW  30  28  93 N18G26    29.81F WCI  18
WASECA         LGT SNOW  32  30  93 NE20G30   29.82F VSB 3/4 WCI  20
ALBERT LEA     LGT SNOW  34  30  86 NE18G24   29.79R WCI  23
$$
MNZ078>079-086>088-094>096-240300-
   Southeast Minnesota

CITY           SKY/WX    TMP DP  RH WIND       PRES   REMARKS
ROCHESTER      LGT RAIN  34  29  82 NE20G26   29.79F WCI  23
RED WING       FLURRIES  36  25  64 E5        29.87F
STANTON        CLOUDY    33  27  79 NE9G18    29.86F WCI  25
DODGE CENTER   FLURRIES  32  28  86 NE15G23   29.79F WCI  22
WINONA         CLOUDY    37  27  65 NE9G17    29.85F
AUSTIN         FLURRIES  34  30  86 NE15      29.78F WCI  24
PRESTON        LGT RAIN  33  30  89 NE18G29   29.77F WCI  22
$$
ABBREVIATIONS USED IN REMARKS
   TC - TEMPERATURES IN CELSIUS
  WCI - WIND CHILL INDEX
   HX - HEAT INDEX
  VSB - VISIBILITY
$$




USA.gov is the U.S. government's official web portal to all federal, state and local government web resources and services.